Retour au catalogue

FENGYUN 1C DEB

ActifPO
NORAD 31625·DEBRIS·🇨🇳 China

Lancé May 10, 1999 depuis Taiyuan Satellite Launch Center

Loading…

Prochains Passages (prochaines 24 heures)

TLE

FraisSource: Space-Track

Époque: Sep 14, 2026, 12:29 UTC

1 31625U 99025CAF 26257.52078766  .00000495  00000-0  10971-3 0  9994
2 31625  98.8056   3.4894 0146903 255.3313 163.1285 14.55878536 23775

Suivez FENGYUN 1C DEB en temps réel avec AllMySat

Download on the App Store